DW7898 Weather Reports


Display with metric or nautical units.
time (UTC)temp
F
wind
direction
speed
MPH
gust
MPH
rain 1hr
in
rain 24hr
in
rain mn
in
humidity
%
barometer
mb
20260504140352 66 214 6.0 12.0 0.00 0.05 0.02 71 1012.4
20260504130341 67 191 1.0 9.0 0.00 0.05 0.02 70 1012.6
20260504110339 68 114 4.0 11.0 0.00 0.03 0.00 67 1012.8
20260504100346 71 219 8.0 13.0 0.00 0.03 0.00 57 1012.9
20260504081354 66 183 2.0 7.0 0.00 0.03 0.00 70 1013.2
20260504080339 66 219 1.0 5.0 0.00 0.03 0.00 72 1013.3
20260504070348 62 245 0.0 4.0 0.00 0.03 0.00 89 1013.9
20260504050335 60 9 0.0 1.0 0.00 0.03 0.00 94 1013.9
20260504045354 60 9 0.0 1.0 0.00 0.03 0.00 94 1014.0
20260504044356 60 9 1.0 3.0 0.00 0.03 0.00 94 1013.9
20260504043336 60 9 2.0 3.0 0.00 0.03 0.00 93 1014.0
20260504042339 60 14 0.0 3.0 0.00 0.03 0.00 94 1014.0
20260504041348 60 15 0.0 2.0 0.00 0.03 0.00 93 1014.0
20260504040337 60 15 1.0 2.0 0.00 0.03 0.00 93 1014.0
20260504035338 60 15 1.0 3.0 0.00 0.03 0.00 93 1014.1
20260504034337 60 29 0.0 3.0 0.00 0.03 0.00 93 1014.1
20260504033345 60 29 1.0 3.0 0.00 0.03 0.00 93 1014.1
20260504032347 60 27 0.0 0.0 0.00 0.03 0.00 93 1014.3
20260504031354 60 27 0.0 0.0 0.00 0.03 0.00 93 1014.5
20260504030339 60 27 0.0 0.0 0.00 0.03 0.00 93 1014.5
20260504025342 60 27 0.0 0.0 0.00 0.03 0.00 93 1014.4
20260504024343 60 27 0.0 0.0 0.00 0.03 0.00 93 1014.3
20260504023347 60 27 0.0 0.0 0.00 0.03 0.00 93 1014.1
20260504022341 60 27 0.0 0.0 0.00 0.03 0.00 92 1014.2
20260504021347 60 27 0.0 0.0 0.00 0.03 0.00 92 1014.3
20260504020349 60 27 0.0 0.0 0.00 0.03 0.00 92 1014.3
20260504015350 60 27 0.0 0.0 0.00 0.03 0.00 93 1014.3
20260504014353 60 27 0.0 0.0 0.00 0.03 0.00 92 1014.6
20260504013354 60 27 0.0 0.0 0.00 0.03 0.00 92 1014.7
20260504012351 60 27 0.0 0.0 0.00 0.03 0.00 92 1014.7
20260504011357 60 27 0.0 0.0 0.00 0.03 0.00 92 1014.8
20260504010338 60 27 0.0 0.0 0.00 0.03 0.00 92 1014.8
20260504005356 60 27 0.0 0.0 0.00 0.03 0.00 92 1015.0
20260504004355 60 27 0.0 0.0 0.00 0.03 0.00 92 1015.1
20260504003337 60 27 0.0 0.0 0.00 0.03 0.00 92 1015.2
20260504002337 59 27 0.0 2.0 0.00 0.03 0.00 92 1015.3
20260504001337 59 27 1.0 4.0 0.00 0.03 0.00 91 1015.2
20260504000336 60 31 0.0 0.0 0.00 0.03 0.00 92 1015.2
20260503235356 60 34 0.0 0.0 0.00 0.03 0.00 92 1015.1
20260503234338 60 34 0.0 0.0 0.00 0.03 0.00 92 1015.4
20260503233341 60 34 0.0 0.0 0.00 0.03 0.00 91 1015.5
20260503232354 59 34 0.0 2.0 0.00 0.03 0.00 91 1015.4
20260503231353 59 34 1.0 3.0 0.00 0.03 0.00 91 1015.4
20260503230339 60 34 1.0 2.0 0.00 0.03 0.00 91 1015.5
20260503225358 59 34 2.0 4.0 0.00 0.03 0.00 90 1015.5
20260503224358 60 32 3.0 4.0 0.00 0.03 0.00 90 1015.5
20260503223358 59 26 2.0 4.0 0.00 0.03 0.00 89 1015.6
20260503222354 59 33 2.0 5.0 0.00 0.03 0.00 89 1015.7
20260503221339 59 11 3.0 7.0 0.00 0.03 0.00 89 1015.8
20260503220343 59 26 3.0 7.0 0.00 0.03 0.00 90 1015.6
20260503215343 60 33 4.0 7.0 0.00 0.03 0.03 90 1015.7
20260503214350 60 24 3.0 5.0 0.00 0.03 0.03 89 1015.9
20260503213356 60 38 3.0 6.0 0.00 0.03 0.03 89 1015.8
20260503212351 60 39 2.0 5.0 0.02 0.03 0.03 87 1015.9
20260503211351 60 34 1.0 4.0 0.02 0.03 0.03 87 1015.9
20260503210355 60 35 2.0 7.0 0.02 0.03 0.03 86 1016.0
20260503205357 60 51 2.0 5.0 0.02 0.03 0.02 85 1015.9
20260503204355 60 23 3.0 5.0 0.02 0.03 0.02 83 1016.0
20260503203359 60 101 0.0 4.0 0.02 0.03 0.02 82 1016.2
20260503202356 61 99 3.0 6.0 0.01 0.02 0.01 81 1016.2
20260503201357 62 48 0.0 2.0 0.00 0.01 0.01 80 1016.0
20260503200341 62 48 1.0 3.0 0.00 0.01 0.01 80 1015.8
20260503195358 62 48 0.0 2.0 0.00 0.01 0.01 79 1016.0
20260503194341 62 48 1.0 3.0 0.00 0.01 0.01 79 1015.8
20260503193340 62 47 0.0 4.0 0.00 0.01 0.01 79 1015.6
20260503192357 62 46 2.0 4.0 0.01 0.01 0.01 78 1015.5
20260503191358 62 45 1.0 5.0 0.01 0.01 0.01 77 1015.3
20260503190340 62 49 4.0 5.0 0.01 0.01 0.01 76 1015.2
20260503185342 62 85 2.0 5.0 0.01 0.01 0.01 76 1015.5
20260503184347 62 82 1.0 4.0 0.01 0.01 0.01 76 1015.6
20260503183352 62 81 1.0 4.0 0.01 0.01 0.01 75 1015.5
20260503182344 63 77 1.0 6.0 0.00 0.00 0.00 73 1015.4
20260503181350 63 58 2.0 4.0 0.00 0.00 0.00 72 1015.4
20260503180355 63 58 3.0 6.0 0.00 0.00 0.00 71 1015.3
20260503175354 63 111 3.0 6.0 0.00 0.00 0.00 70 1015.3
20260503174338 63 63 3.0 9.0 0.00 0.00 0.00 70 1015.2
20260503173341 64 79 3.0 6.0 0.00 0.00 0.00 70 1015.0
20260503172358 64 62 3.0 7.0 0.00 0.00 0.00 69 1015.0
20260503171339 64 55 4.0 7.0 0.00 0.00 0.00 68 1015.0
20260503170342 64 84 1.0 7.0 0.00 0.00 0.00 67 1015.1
20260503150351 66 141 4.0 9.0 0.00 0.00 0.00 66 1015.2